GW2844 Weather Reports


time (UTC)temp
F
wind
direction
speed
knots
gust
knots
rain 1hr
in
rain 24hr
in
rain mn
in
humidity
%
barometer
mb
20260503223901 79 39 3.5 3.5 0.00 0.00 0.00 36 1011.3
20260503223359 78 258 3.5 4.3 0.00 0.00 0.00 39 1011.6
20260503222853 79 331 4.3 5.2 0.00 0.00 0.00 39 1011.3
20260503222352 79 66 0.9 0.9 0.00 0.00 0.00 38 1011.6
20260503221850 79 306 5.2 6.1 0.00 0.00 0.00 37 1011.6
20260503221349 78 349 4.3 5.2 0.00 0.00 0.00 39 1011.6
20260503220844 78 306 6.1 7.0 0.00 0.00 0.00 40 1012.0
20260503220341 78 310 3.5 4.3 0.00 0.00 0.00 40 1012.0
20260503215838 79 78 1.7 1.7 0.00 0.00 0.00 39 1011.6
20260503215336 80 37 3.5 3.5 0.00 0.00 0.00 36 1012.0
20260503214833 78 34 2.6 2.6 0.00 0.00 0.00 39 1012.0
20260503214330 78 318 3.5 3.5 0.00 0.00 0.00 40 1012.3
20260503213827 78 278 3.5 3.5 0.00 0.00 0.00 38 1012.3
20260503213325 78 24 2.6 2.6 0.00 0.00 0.00 38 1012.3
20260503212822 77 277 3.5 3.5 0.00 0.00 0.00 43 1012.0
20260503212320 78 24 1.7 1.7 0.00 0.00 0.00 40 1012.3
20260503211817 79 49 2.6 3.5 0.00 0.00 0.00 38 1012.7
20260503211314 78 48 2.6 2.6 0.00 0.00 0.00 42 1012.3
20260503210813 78 65 1.7 1.7 0.00 0.00 0.00 39 1012.3
20260503210311 78 78 2.6 2.6 0.00 0.00 0.00 39 1012.7
20260503205806 79 48 2.6 2.6 0.00 0.00 0.00 40 1012.7
20260503205304 78 34 1.7 1.7 0.00 0.00 0.00 41 1012.7
20260503204759 78 6 2.6 2.6 0.00 0.00 0.00 40 1012.7
20260503204257 77 312 1.7 1.7 0.00 0.00 0.00 42 1012.7
20260503203754 76 343 2.6 2.6 0.00 0.00 0.00 44 1012.7
20260503203251 76 78 1.7 1.7 0.00 0.00 0.00 42 1013.0
20260503202748 75 329 2.6 3.5 0.00 0.00 0.00 46 1013.0
20260503202246 77 336 0.9 0.9 0.00 0.00 0.00 45 1013.0
20260503201744 77 277 3.5 3.5 0.00 0.00 0.00 45 1013.0
20260503201241 76 274 0.0 0.0 0.00 0.00 0.00 43 1013.0
20260503200737 75 318 4.3 4.3 0.00 0.00 0.00 47 1013.0
20260503200234 74 19 3.5 3.5 0.00 0.00 0.00 47 1013.3
20260503195731 74 294 4.3 5.2 0.00 0.00 0.00 48 1013.3
20260503195228 74 327 3.5 3.5 0.00 0.00 0.00 48 1013.3
20260503194726 74 310 6.1 6.1 0.00 0.00 0.00 48 1013.3
20260503194221 75 271 4.3 5.2 0.00 0.00 0.00 48 1013.3
20260503193717 74 30 1.7 1.7 0.00 0.00 0.00 50 1013.7
20260503193213 75 275 1.7 1.7 0.00 0.00 0.00 48 1013.3
20260503192709 75 82 4.3 5.2 0.00 0.00 0.00 46 1013.7
20260503192204 74 258 2.6 2.6 0.00 0.00 0.00 49 1013.7
20260503191701 74 40 5.2 5.2 0.00 0.00 0.00 48 1013.3
20260503191158 73 24 1.7 1.7 0.00 0.00 0.00 52 1013.7
20260503190655 74 300 3.5 4.3 0.00 0.00 0.00 52 1014.0
20260503190152 74 299 3.5 3.5 0.00 0.00 0.00 51 1014.0
20260503185649 73 72 0.0 0.0 0.00 0.00 0.00 49 1013.7
20260503185144 72 30 1.7 1.7 0.00 0.00 0.00 54 1014.0
20260503184639 74 29 5.2 5.2 0.00 0.00 0.00 49 1014.0
20260503184136 73 60 2.6 3.5 0.00 0.00 0.00 49 1014.0
20260503183632 71 34 4.3 4.3 0.00 0.00 0.00 53 1014.0
20260503183130 71 355 7.0 7.8 0.00 0.00 0.00 53 1014.0
20260503182628 72 348 2.6 2.6 0.00 0.00 0.00 52 1014.0
20260503182126 71 82 1.7 1.7 0.00 0.00 0.00 49 1014.4
20260503181623 71 328 2.6 2.6 0.00 0.00 0.00 53 1014.4
20260503181120 71 344 2.6 2.6 0.00 0.00 0.00 53 1014.4
20260503180617 70 29 1.7 1.7 0.00 0.00 0.00 54 1014.4
20260503180115 70 324 4.3 4.3 0.00 0.00 0.00 54 1014.4
20260503175611 71 34 0.9 0.9 0.00 0.00 0.00 53 1014.4
20260503175108 70 23 1.7 1.7 0.00 0.00 0.00 52 1014.4
20260503174605 68 2 2.6 3.5 0.00 0.00 0.00 55 1014.4
20260503174102 69 72 1.7 1.7 0.00 0.00 0.00 54 1014.4
20260503173557 68 311 3.5 4.3 0.00 0.00 0.00 57 1014.4
20260503173054 69 30 4.3 5.2 0.00 0.00 0.00 56 1014.7
20260503172551 68 328 1.7 1.7 0.00 0.00 0.00 58 1014.4
20260503172048 67 336 2.6 3.5 0.00 0.00 0.00 58 1014.7
20260503171544 67 19 3.5 3.5 0.00 0.00 0.00 59 1014.7
20260503171042 68 302 3.5 3.5 0.00 0.00 0.00 59 1014.7
20260503170538 69 72 2.6 3.5 0.00 0.00 0.00 56 1014.7
20260503150924 63 318 1.7 1.7 0.00 0.00 0.00 67 1014.7
20260503150421 62 96 0.9 0.9 0.00 0.00 0.00 66 1014.7
20260503131314 49 186 0.0 0.0 0.00 0.00 0.00 88 1014.4
20260503130812 49 186 0.0 0.0 0.00 0.00 0.00 88 1014.4
20260503130309 49 186 0.0 0.0 0.00 0.00 0.00 87 1014.7
20260503110702 51 186 0.0 0.0 0.00 0.00 0.00 83 1014.7
20260503110200 51 186 0.0 0.0 0.00 0.00 0.00 84 1014.7
20260503100126 53 186 0.0 0.0 0.00 0.00 0.00 80 1014.7
20260503081510 58 186 0.0 0.0 0.00 0.00 0.00 67 1015.0
20260503081007 57 186 0.0 0.0 0.00 0.00 0.00 67 1014.7
20260503080503 56 186 0.0 0.0 0.00 0.00 0.00 72 1014.7
20260503072940 58 60 0.0 0.0 0.00 0.00 0.00 68 1015.0
20260503072437 58 60 0.0 0.0 0.00 0.00 0.00 69 1015.0
20260503071934 58 60 0.0 0.0 0.00 0.00 0.00 69 1014.7
20260503071431 58 60 0.0 0.0 0.00 0.00 0.00 69 1014.7
20260503070927 57 60 0.0 0.0 0.00 0.00 0.00 71 1015.0
20260503070424 57 60 0.0 0.0 0.00 0.00 0.00 71 1014.7
20260503054832 58 60 0.0 0.0 0.00 0.00 0.00 74 1014.7
20260503054328 58 60 0.0 0.0 0.00 0.00 0.00 74 1014.7
20260503053826 59 60 0.0 0.0 0.00 0.00 0.00 73 1014.7
20260503053324 60 60 0.0 0.0 0.00 0.00 0.00 72 1014.7
20260503052820 60 60 0.0 0.0 0.00 0.00 0.00 70 1014.7
20260503052317 61 60 0.0 0.0 0.00 0.00 0.00 69 1014.7
20260503051813 62 60 0.0 0.0 0.00 0.00 0.00 68 1014.7
20260503051309 62 60 1.7 1.7 0.00 0.00 0.00 68 1014.7
20260503050806 62 60 0.0 0.0 0.00 0.00 0.00 67 1014.4
20260503050303 62 60 0.0 0.0 0.00 0.00 0.00 66 1014.4
20260503045801 62 60 0.0 0.0 0.00 0.00 0.00 65 1014.4
20260503045258 63 60 0.0 0.0 0.00 0.00 0.00 66 1014.4
20260503044754 63 60 1.7 1.7 0.00 0.00 0.00 65 1014.4
20260503044251 63 60 0.0 0.0 0.00 0.00 0.00 65 1014.4
20260503043748 63 60 0.0 0.0 0.00 0.00 0.00 64 1014.4
20260503043245 63 32 0.0 0.0 0.00 0.00 0.00 62 1014.4
20260503042741 63 32 1.7 1.7 0.00 0.00 0.00 62 1014.0
20260503042238 64 32 0.9 0.9 0.00 0.00 0.00 61 1014.0
20260503041734 64 32 1.7 1.7 0.00 0.00 0.00 60 1014.0
20260503041232 65 32 1.7 1.7 0.00 0.00 0.00 58 1014.4
20260503040729 65 36 0.0 0.0 0.00 0.00 0.00 59 1014.0
20260503040227 65 36 0.0 0.0 0.00 0.00 0.00 58 1014.0
20260503035723 66 24 0.0 0.0 0.00 0.00 0.00 56 1013.7
20260503035221 67 54 2.6 2.6 0.00 0.00 0.00 54 1013.7
20260503034718 67 8 1.7 1.7 0.00 0.00 0.00 52 1014.0
20260503034215 68 70 1.7 1.7 0.00 0.00 0.00 50 1013.3
20260503033712 69 60 5.2 5.2 0.00 0.00 0.00 48 1013.7
20260503033210 69 29 4.3 5.2 0.00 0.00 0.00 48 1013.3
20260503032708 69 36 2.6 2.6 0.00 0.00 0.00 49 1013.3
20260503032206 69 48 2.6 2.6 0.00 0.00 0.00 48 1013.3
20260503031703 69 54 6.1 6.1 0.00 0.00 0.00 49 1013.3
20260503031201 69 6 2.6 2.6 0.00 0.00 0.00 50 1013.3
20260503030656 69 355 6.1 6.1 0.00 0.00 0.00 50 1013.3
20260503030153 69 303 6.1 6.1 0.00 0.00 0.00 50 1013.0
20260503025650 69 318 7.0 7.0 0.00 0.00 0.00 49 1013.0
20260503025148 69 280 4.3 5.2 0.00 0.00 0.00 49 1013.0
20260503024644 69 6 4.3 5.2 0.00 0.00 0.00 48 1013.0
20260503024141 69 300 9.6 10.4 0.00 0.00 0.00 48 1013.3
20260503023633 70 314 3.5 3.5 0.00 0.00 0.00 48 1013.0
20260503023130 70 23 4.3 5.2 0.00 0.00 0.00 47 1013.0
20260503022626 70 100 4.3 4.3 0.00 0.00 0.00 48 1013.0
20260503022120 70 60 5.2 6.1 0.00 0.00 0.00 47 1013.0
20260503021618 70 316 4.3 5.2 0.00 0.00 0.00 47 1013.0
20260503021114 70 328 1.7 1.7 0.00 0.00 0.00 47 1013.0
20260503020611 71 6 4.3 5.2 0.00 0.00 0.00 46 1013.0
20260503020109 71 324 4.3 4.3 0.00 0.00 0.00 47 1013.0
20260503015605 71 329 3.5 4.3 0.00 0.00 0.00 47 1013.0
20260503015103 71 30 4.3 5.2 0.00 0.00 0.00 47 1013.0
20260503014558 71 343 4.3 5.2 0.00 0.00 0.00 47 1013.0
20260503014056 73 35 1.7 1.7 0.00 0.00 0.00 46 1013.0
20260503013553 72 0 0.0 0.0 0.00 0.00 0.00 48 1013.0
20260503013051 73 12 1.7 1.7 0.00 0.00 0.00 47 1013.3
20260503012548 73 49 1.7 1.7 0.00 0.00 0.00 47 1013.0
20260503012045 73 93 0.0 0.0 0.00 0.00 0.00 47 1013.0
20260503011541 73 66 4.3 4.3 0.00 0.00 0.00 47 1013.3
20260503011039 73 54 1.7 1.7 0.00 0.00 0.00 47 1013.0
20260503010534 73 294 3.5 3.5 0.00 0.00 0.00 47 1013.3
20260503010032 73 318 1.7 1.7 0.00 0.00 0.00 47 1013.3
20260503005529 74 90 3.5 3.5 0.00 0.00 0.00 46 1013.3
20260503005027 73 331 4.3 4.3 0.00 0.00 0.00 47 1013.3
20260503004522 73 18 2.6 3.5 0.00 0.00 0.00 47 1013.7
20260503004021 75 18 4.3 4.3 0.00 0.00 0.00 45 1013.3
20260503003517 74 72 1.7 1.7 0.00 0.00 0.00 46 1013.7
20260503003014 75 71 1.7 1.7 0.00 0.00 0.00 45 1013.3
20260503002511 75 90 0.0 0.0 0.00 0.00 0.00 45 1013.7
20260503002008 76 71 1.7 1.7 0.00 0.00 0.00 44 1013.3
20260503001504 74 35 1.7 1.7 0.00 0.00 0.00 45 1013.3
20260503001002 74 38 3.5 3.5 0.00 0.00 0.00 45 1013.7
20260503000459 74 35 5.2 6.1 0.00 0.00 0.00 46 1013.7
20260502235956 74 30 1.7 1.7 0.00 0.00 0.00 47 1013.7
20260502235453 74 48 0.9 0.9 0.00 0.00 0.00 47 1013.7
20260502234950 74 54 1.7 1.7 0.00 0.00 0.00 47 1014.0
20260502234446 73 65 2.6 2.6 0.00 0.00 0.00 48 1013.7
20260502233944 72 24 1.7 1.7 0.00 0.00 0.00 49 1014.0
20260502233439 72 17 3.5 4.3 0.00 0.00 0.00 48 1014.0
20260502232936 71 323 3.5 3.5 0.00 0.00 0.00 49 1014.0
20260502232432 73 300 4.3 4.3 0.00 0.00 0.00 47 1014.0
20260502231929 73 324 2.6 3.5 0.00 0.00 0.00 47 1014.4
20260502231426 73 309 5.2 6.1 0.00 0.00 0.00 47 1014.4
20260502230925 73 332 4.3 5.2 0.00 0.00 0.00 44 1014.4
20260502230422 73 342 7.8 8.7 0.00 0.00 0.00 46 1014.4
20260502225921 73 24 7.0 7.8 0.00 0.00 0.00 45 1014.7
20260502225416 72 324 6.1 6.1 0.00 0.00 0.00 45 1014.7
20260502224913 73 342 3.5 3.5 0.00 0.00 0.00 45 1014.7
20260502224408 72 354 5.2 5.2 0.00 0.00 0.00 46 1015.0